Flag for Germany Weather past 2 weeks in Coesfeld, North Rhine-Westphalia, Germany

Now
43 °F

Quite cool.


Feels Like: 39 °F
Forecast: 35 / 51 °F
Wind: 7 mph from Southwest

Location: Rheine-Bentlage

Current Time: Mar 27, 2015 at 1:06:04 AM

Latest Report: Mar 27, 2015 at 12:20 AM


Visibility: N/A

Pressure: 29.71 "Hg

Humidity: 93%

Dew point: 41 °F

Location of CoesfeldLocation

Historic Weather in Coesfeld — Graph

°F

Coesfeld temperature yesterday

Maximum temperature yesterday: 46 °F (at 1:20 PM)
Minimum temperature yesterday: 39 °F (at 2:20 AM)
Average temperature yesterday: 42 °F

Past Weeks' High & Low Weather Summary

 TemperatureHumidityPressure
High61 °F (Mar 17, 3:20 PM)100% (Mar 12, 12:20 AM)30.51 "Hg (Mar 12, 12:20 AM)
Low27 °F (Mar 12, 5:51 AM)44% (Mar 12, 3:20 PM)29.65 "Hg (Mar 25, 4:20 AM)
Average41 °F80%30.17 "Hg
* Reported Mar 11 11:20 PM — Mar 26 11:20 PM, Coesfeld, Weather by CustomWeather, © 2015

Note: Actual official high and low records may vary slightly from our data, if they occured in-between our weather recording intervals... More about our weather records

Advertising

Coesfeld weather history for previous 24 hours

 ConditionsComfort  
Time TempWeatherWind HumidityBarometerVisibility
11:20 PM
Thu, Mar 26
43 °FQuite cool.7 mph87%29.71 "HgN/A
10:20 PM41 °FQuite cool.6 mph87%29.71 "HgN/A
9:20 PM41 °FQuite cool.7 mph87%29.71 "HgN/A
8:20 PM41 °FQuite cool.8 mph81%29.71 "HgN/A
7:20 PM41 °FQuite cool.7 mph81%29.71 "HgN/A
6:20 PM41 °FQuite cool.7 mph81%29.71 "HgN/A
5:20 PM41 °FQuite cool.7 mph81%29.71 "HgN/A
4:20 PM45 °FQuite cool.3 mph61%29.71 "HgN/A
3:20 PM46 °FPartly sunny.7 mph53%29.71 "HgN/A
2:20 PM46 °FPartly sunny.7 mph53%29.71 "HgN/A
1:20 PM46 °FPartly sunny.7 mph57%29.71 "HgN/A
12:20 PM45 °FPartly sunny.8 mph61%29.74 "HgN/A
11:20 AM43 °FPartly sunny.8 mph66%29.77 "HgN/A
10:20 AM41 °FPartly sunny.7 mph70%29.77 "HgN/A
9:20 AM41 °FPartly sunny.8 mph70%29.77 "HgN/A
8:20 AM41 °FPartly sunny.5 mph76%29.77 "HgN/A
7:20 AM41 °FPartly sunny.7 mph81%29.77 "HgN/A
6:20 AM41 °FPartly sunny.5 mph87%29.77 "HgN/A
5:20 AM39 °FPassing clouds.5 mph93%29.77 "HgN/A
4:20 AM39 °FChilly.3 mph93%29.74 "HgN/A
3:20 AM39 °FChilly.3 mph93%29.74 "HgN/A
2:20 AM39 °FChilly.6 mph87%29.74 "HgN/A
1:20 AM41 °FQuite cool.7 mph81%29.77 "HgN/A
Weather by CustomWeather, © 2015

See weather overviewHow to use our weather pages